Location: Aydie
(43.5695°N, 0.1043°W)
Time: 12:41:20
(UTC+00:00)

Cosmos 1140 Rocket - Pass Details

Date: 17 November 2025
Orbit: 740 x 761 km, 74.1° (Epoch: 11 December)

Event Time Altitude Azimuth Distance (km) Brightness Sun altitude
Rises 17:32:26 0° 215° (SW) 3,198 7.6 -10.8°
Reaches altitude 10° 17:34:52 10° 221° (SW) 2,274 6.9 -11.2°
Maximum altitude 17:39:51 48° 295° (WNW) 978 4.4 -12.1°
Drops below altitude 10° 17:44:50 10° 10° (N) 2,275 5.7 -13.0°
Sets 17:47:17 0° 16° (NNE) 3,200 6.4 -13.4°
